KI0MQ Weather Reports


Display with metric or nautical units.
time (UTC)temp
F
wind
direction
speed
MPH
gust
MPH
rain 1hr
in
rain 24hr
in
rain mn
in
humidity
%
barometer
mb
20260508094508 51 36 0.0 1.0 0.00 0.00 0.00 67 1009.1
20260508094003 51 36 0.0 1.0 0.00 0.00 0.00 65 1009.0
20260508093504 51 36 0.0 1.0 0.00 0.00 0.00 65 1009.1
20260508093008 52 0 0.0 0.0 0.00 0.00 0.00 65 1009.1
20260508092504 52 0 0.0 0.0 0.00 0.00 0.00 63 1009.1
20260508092003 52 0 0.0 0.0 0.00 0.00 0.00 61 1009.1
20260508091508 53 36 0.0 1.0 0.00 0.00 0.00 61 1009.1
20260508091003 53 36 0.0 1.0 0.00 0.00 0.00 61 1009.2
20260508090503 54 37 0.0 1.0 0.00 0.00 0.00 61 1009.2
20260508090008 54 37 0.0 1.0 0.00 0.00 0.00 60 1009.0
20260508085504 54 0 0.0 0.0 0.00 0.00 0.00 60 1009.2
20260508085004 54 37 0.0 1.0 0.00 0.00 0.00 60 1009.3
20260508084508 54 37 0.0 1.0 0.00 0.00 0.00 61 1009.1
20260508084003 55 37 0.0 1.0 0.00 0.00 0.00 60 1009.0
20260508082503 55 0 0.0 0.0 0.00 0.00 0.00 58 1009.3
20260508082004 55 0 0.0 0.0 0.00 0.00 0.00 55 1009.3
20260508081507 55 37 0.0 1.0 0.00 0.00 0.00 59 1009.0
20260508080504 55 37 0.0 1.0 0.00 0.00 0.00 61 1009.0
20260508080009 55 37 0.0 1.0 0.00 0.00 0.00 61 1009.4
20260508075503 55 37 0.0 1.0 0.00 0.00 0.00 59 1009.4
20260508074508 55 37 0.0 1.0 0.00 0.00 0.00 60 1009.4
20260508074003 55 0 0.0 0.0 0.00 0.00 0.00 59 1009.6
20260508073008 55 36 0.0 1.0 0.00 0.00 0.00 60 1009.4
20260508072504 55 36 0.0 1.0 0.00 0.00 0.00 60 1009.4
20260508072004 55 36 0.0 1.0 0.00 0.00 0.00 60 1009.3
20260508071508 55 31 0.0 1.0 0.00 0.00 0.00 56 1009.0
20260508071003 54 25 0.0 1.0 0.00 0.00 0.00 58 1008.8
20260508070503 54 0 0.0 0.0 0.00 0.00 0.00 61 1009.1
20260508070009 54 0 0.0 0.0 0.00 0.00 0.00 63 1009.1
20260508065503 55 25 0.0 1.0 0.00 0.00 0.00 61 1009.4
20260508065003 54 25 0.0 1.0 0.00 0.00 0.00 61 1009.4
20260508064004 54 0 0.0 0.0 0.00 0.00 0.00 66 1009.5
20260508063503 53 0 0.0 0.0 0.00 0.00 0.00 64 1009.5
20260508063008 53 0 0.0 0.0 0.00 0.00 0.00 66 1009.6
20260508062504 53 0 0.0 0.0 0.00 0.00 0.00 65 1009.5
20260508062003 53 0 0.0 0.0 0.00 0.00 0.00 67 1009.6
20260508061508 53 0 0.0 0.0 0.00 0.00 0.00 67 1009.7
20260508061003 53 0 0.0 0.0 0.00 0.00 0.00 67 1009.5
20260508060504 53 0 0.0 0.0 0.00 0.00 0.00 67 1009.4
20260508060009 53 0 0.0 0.0 0.00 0.00 0.00 66 1009.3
20260508055503 53 0 0.0 0.0 0.00 0.00 0.00 67 1009.3
20260508054508 52 0 0.0 0.0 0.00 0.00 0.00 68 1009.2
20260508054004 52 0 0.0 0.0 0.00 0.00 0.00 67 1009.2
20260508053503 52 0 0.0 0.0 0.00 0.00 0.00 68 1009.1
20260508052503 52 0 0.0 0.0 0.00 0.00 0.00 67 1009.1
20260508052004 52 0 0.0 0.0 0.00 0.00 0.00 66 1009.1
20260508050504 52 0 0.0 0.0 0.00 0.00 0.00 66 1009.2
20260508050009 52 0 0.0 0.0 0.00 0.00 0.00 65 1009.3
20260508045504 52 0 0.0 0.0 0.00 0.00 0.00 64 1009.3
20260508045004 52 0 0.0 0.0 0.00 0.00 0.00 64 1009.4
20260508044508 52 0 0.0 0.0 0.00 0.00 0.00 64 1009.4
20260508044003 51 0 0.0 0.0 0.00 0.00 0.00 64 1009.5
20260508043008 52 0 0.0 0.0 0.00 0.00 0.00 63 1009.5
20260508042503 52 0 0.0 0.0 0.00 0.00 0.00 63 1009.4
20260508042004 52 0 0.0 0.0 0.00 0.00 0.00 62 1009.3
20260508041508 52 0 0.0 0.0 0.00 0.00 0.00 60 1009.3
20260508041003 52 0 0.0 0.0 0.00 0.00 0.00 60 1009.4
20260508040503 52 0 0.0 0.0 0.00 0.00 0.00 60 1009.5
20260508040008 52 0 0.0 0.0 0.00 0.00 0.00 60 1009.5
20260508035503 52 0 0.0 0.0 0.00 0.00 0.00 60 1009.5
20260508035004 52 0 0.0 0.0 0.00 0.00 0.00 60 1009.4
20260508034507 52 0 0.0 0.0 0.00 0.00 0.00 61 1009.3
20260508033504 53 0 0.0 0.0 0.00 0.00 0.00 56 1009.4
20260508033007 54 0 0.0 0.0 0.00 0.00 0.00 55 1009.3
20260508032504 54 0 0.0 0.0 0.00 0.00 0.00 55 1009.4
20260508032003 54 0 0.0 0.0 0.00 0.00 0.00 55 1009.4
20260508031005 55 0 0.0 0.0 0.00 0.00 0.00 54 1009.4
20260508030503 55 0 0.0 0.0 0.00 0.00 0.00 53 1009.4
20260508030008 56 0 0.0 0.0 0.00 0.00 0.00 53 1009.3
20260508025503 56 0 0.0 0.0 0.00 0.00 0.00 52 1009.3
20260508025003 56 0 0.0 0.0 0.00 0.00 0.00 50 1009.2
20260508024508 57 0 0.0 0.0 0.00 0.00 0.00 50 1009.2
20260508024003 57 0 0.0 0.0 0.00 0.00 0.00 49 1009.2
20260508023503 57 0 0.0 0.0 0.00 0.00 0.00 48 1009.0
20260508022003 59 0 0.0 0.0 0.00 0.00 0.00 46 1009.0
20260508021508 59 0 0.0 0.0 0.00 0.00 0.00 45 1008.9
20260508021003 60 0 0.0 0.0 0.00 0.00 0.00 45 1008.8
20260508020503 60 0 0.0 0.0 0.00 0.00 0.00 44 1008.7
20260508020008 61 0 0.0 0.0 0.00 0.00 0.00 44 1008.6
20260508015503 61 0 0.0 0.0 0.00 0.00 0.00 42 1008.6
20260508015004 62 0 0.0 0.0 0.00 0.00 0.00 40 1008.6
20260508014507 63 0 0.0 0.0 0.00 0.00 0.00 39 1008.6
20260508014004 64 0 0.0 0.0 0.00 0.00 0.00 37 1008.6
20260508013504 65 25 0.0 1.0 0.00 0.00 0.00 37 1008.6
20260508013007 65 25 0.0 1.0 0.00 0.00 0.00 35 1008.6
20260508012504 66 0 0.0 0.0 0.00 0.00 0.00 36 1008.5
20260508012003 66 25 0.0 1.0 0.00 0.00 0.00 34 1008.4
20260508011508 67 26 0.0 1.0 0.00 0.00 0.00 33 1008.4
20260508011003 68 25 0.0 2.0 0.00 0.00 0.00 33 1008.3
20260508010503 68 30 0.0 3.0 0.00 0.00 0.00 32 1008.3
20260508010008 69 4 1.0 3.0 0.00 0.00 0.00 31 1008.2
20260508005503 69 352 1.0 3.0 0.00 0.00 0.00 30 1008.1
20260508005004 70 354 1.0 3.0 0.00 0.00 0.00 30 1008.1
20260508003504 71 8 2.0 6.0 0.00 0.00 0.00 29 1007.9
20260508003008 71 1 2.0 6.0 0.00 0.00 0.00 29 1007.9
20260508002503 71 345 2.0 5.0 0.00 0.00 0.00 28 1007.9
20260508002003 72 352 2.0 6.0 0.00 0.00 0.00 29 1007.9
20260508001508 72 358 2.0 6.0 0.00 0.00 0.00 29 1007.9
20260508001003 72 349 2.0 5.0 0.00 0.00 0.00 29 1007.8
20260508000504 72 343 2.0 6.0 0.00 0.00 0.00 28 1007.8
20260507235504 72 320 1.0 6.0 0.00 0.00 0.00 30 1007.8
20260507235003 72 359 2.0 6.0 0.00 0.00 0.00 30 1007.7
20260507234508 72 353 2.0 7.0 0.00 0.00 0.00 31 1007.8
20260507234004 71 323 3.0 8.0 0.00 0.00 0.00 30 1007.8
20260507233503 72 330 3.0 8.0 0.00 0.00 0.00 29 1007.8
20260507233008 72 346 2.0 8.0 0.00 0.00 0.00 28 1007.8
20260507232503 72 311 2.0 8.0 0.00 0.00 0.00 27 1007.8
20260507231508 72 334 3.0 9.0 0.00 0.00 0.00 29 1007.8
20260507231005 72 324 2.0 9.0 0.00 0.00 0.00 29 1007.8
20260507230503 72 347 1.0 5.0 0.00 0.00 0.00 31 1007.8
20260507225504 72 297 1.0 7.0 0.00 0.00 0.00 29 1007.7
20260507225003 72 314 2.0 7.0 0.00 0.00 0.00 28 1007.7
20260507224004 72 323 2.0 11.0 0.00 0.00 0.00 28 1007.6
20260507223008 72 329 3.0 10.0 0.00 0.00 0.00 31 1007.7
20260507222504 72 320 3.0 10.0 0.00 0.00 0.00 29 1007.9
20260507222004 72 307 2.0 4.0 0.00 0.00 0.00 29 1007.8
20260507221507 72 311 1.0 4.0 0.00 0.00 0.00 31 1007.7
20260507221003 71 321 1.0 7.0 0.00 0.00 0.00 31 1007.8
20260507220008 71 314 2.0 9.0 0.00 0.00 0.00 30 1007.9
20260507215503 72 330 1.0 8.0 0.00 0.00 0.00 31 1007.9
20260507215004 71 306 1.0 7.0 0.00 0.00 0.00 33 1007.8
20260507214507 71 305 2.0 7.0 0.00 0.00 0.00 31 1007.9
20260507214003 72 316 1.0 6.0 0.00 0.00 0.00 31 1007.9
20260507213504 71 332 2.0 9.0 0.00 0.00 0.00 32 1007.9
20260507213007 71 344 2.0 9.0 0.00 0.00 0.00 30 1008.0
20260507212504 72 324 2.0 10.0 0.00 0.00 0.00 31 1008.0
20260507212003 71 303 3.0 10.0 0.00 0.00 0.00 31 1008.1
20260507211508 71 312 3.0 9.0 0.00 0.00 0.00 32 1008.1
20260507211005 71 322 3.0 10.0 0.00 0.00 0.00 30 1008.0
20260507210503 72 333 3.0 10.0 0.00 0.00 0.00 30 1008.1
20260507210008 72 318 2.0 6.0 0.00 0.00 0.00 30 1008.2
20260507205504 72 305 2.0 6.0 0.00 0.00 0.00 31 1008.1
20260507204507 72 235 2.0 5.0 0.00 0.00 0.00 34 1008.2
20260507204004 72 271 2.0 8.0 0.00 0.00 0.00 32 1008.3
20260507203504 72 308 3.0 9.0 0.00 0.00 0.00 32 1008.4
20260507203008 72 328 4.0 10.0 0.00 0.00 0.00 29 1008.4
20260507202504 72 341 3.0 10.0 0.00 0.00 0.00 29 1008.5
20260507202004 73 327 3.0 8.0 0.00 0.00 0.00 29 1008.5
20260507200503 73 270 2.0 13.0 0.00 0.00 0.00 29 1008.5
20260507200008 73 273 2.0 11.0 0.00 0.00 0.00 27 1008.6
20260507195003 73 331 2.0 7.0 0.00 0.00 0.00 31 1008.4
20260507194508 74 316 2.0 10.0 0.00 0.00 0.00 31 1008.5
20260507193503 74 247 1.0 7.0 0.00 0.00 0.00 35 1008.4
20260507193008 74 266 2.0 7.0 0.00 0.00 0.00 35 1008.5
20260507191508 73 290 2.0 8.0 0.00 0.00 0.00 37 1008.6
20260507185503 74 261 1.0 5.0 0.00 0.00 0.00 37 1008.4
20260507185004 73 268 2.0 7.0 0.00 0.00 0.00 39 1008.6
20260507183504 72 223 2.0 6.0 0.00 0.00 0.00 38 1008.7
20260507183008 71 246 2.0 6.0 0.00 0.00 0.00 40 1008.8
20260507182503 71 260 2.0 6.0 0.00 0.00 0.00 39 1008.9
20260507182003 70 254 2.0 6.0 0.00 0.00 0.00 40 1008.9
20260507181508 70 258 2.0 6.0 0.00 0.00 0.00 40 1009.1
20260507180503 70 236 2.0 7.0 0.00 0.00 0.00 38 1009.1
20260507180008 70 251 2.0 8.0 0.00 0.00 0.00 39 1009.1
20260507175503 71 241 2.0 8.0 0.00 0.00 0.00 42 1009.1
20260507175004 70 253 2.0 7.0 0.00 0.00 0.00 43 1009.2
20260507174508 69 257 2.0 6.0 0.00 0.00 0.00 42 1009.3
20260507174003 69 237 2.0 5.0 0.00 0.00 0.00 39 1009.4
20260507173504 69 258 2.0 6.0 0.00 0.00 0.00 40 1009.5
20260507173007 69 258 2.0 6.0 0.00 0.00 0.00 40 1009.6
20260507172504 69 245 2.0 6.0 0.00 0.00 0.00 41 1009.5
20260507172003 68 241 2.0 5.0 0.00 0.00 0.00 40 1009.7
20260507171508 68 233 1.0 4.0 0.00 0.00 0.00 42 1009.7
20260507170504 67 246 1.0 5.0 0.00 0.00 0.00 41 1009.8
20260507165503 66 244 1.0 4.0 0.00 0.00 0.00 43 1010.0
20260507164003 66 231 2.0 4.0 0.00 0.00 0.00 45 1010.2
20260507163503 66 213 2.0 5.0 0.00 0.00 0.00 52 1010.2
20260507163007 64 213 2.0 6.0 0.00 0.00 0.00 48 1010.2
20260507162503 64 203 3.0 7.0 0.00 0.00 0.00 47 1010.2
20260507162003 64 194 3.0 8.0 0.00 0.00 0.00 50 1010.3
20260507161509 63 205 2.0 8.0 0.00 0.00 0.00 51 1010.3
20260507161004 63 223 2.0 4.0 0.00 0.00 0.00 51 1010.4
20260507160008 62 203 2.0 8.0 0.00 0.00 0.00 53 1010.5
20260507155504 62 216 2.0 5.0 0.00 0.00 0.00 53 1010.6
20260507155004 61 236 2.0 5.0 0.00 0.00 0.00 55 1010.6
20260507154507 61 230 2.0 5.0 0.00 0.00 0.00 54 1010.7
20260507153504 60 225 2.0 6.0 0.00 0.00 0.00 56 1010.8
20260507152503 59 213 2.0 6.0 0.00 0.00 0.00 60 1010.8
20260507152003 59 206 2.0 6.0 0.00 0.00 0.00 61 1011.0
20260507151508 59 214 2.0 5.0 0.00 0.00 0.00 62 1011.0
20260507151003 58 223 1.0 4.0 0.00 0.00 0.00 62 1011.1
20260507150008 57 235 2.0 4.0 0.00 0.00 0.00 63 1011.1
20260507145503 56 238 2.0 5.0 0.00 0.00 0.00 65 1011.2
20260507145003 56 240 2.0 5.0 0.00 0.00 0.00 65 1011.2
20260507144508 56 237 2.0 5.0 0.00 0.00 0.00 65 1011.3
20260507144004 56 235 1.0 4.0 0.00 0.00 0.00 66 1011.4
20260507143503 55 237 1.0 4.0 0.00 0.00 0.00 67 1011.4
20260507143008 55 232 2.0 4.0 0.00 0.00 0.00 67 1011.4
20260507142504 55 231 1.0 3.0 0.00 0.00 0.00 68 1011.5
20260507141508 54 245 1.0 3.0 0.00 0.00 0.00 71 1011.5
20260507140009 52 243 1.0 4.0 0.00 0.00 0.00 72 1011.6
20260507135503 52 247 2.0 4.0 0.00 0.00 0.00 72 1011.6
20260507135005 52 236 2.0 5.0 0.00 0.00 0.00 74 1011.6
20260507134003 51 240 1.0 4.0 0.00 0.00 0.00 74 1011.6
20260507133008 50 241 2.0 5.0 0.00 0.00 0.00 75 1011.6
20260507132503 50 237 1.0 4.0 0.00 0.00 0.00 76 1011.7
20260507131508 49 239 2.0 5.0 0.00 0.00 0.00 77 1011.7
20260507131005 49 239 2.0 4.0 0.00 0.00 0.00 78 1011.7
20260507130503 48 234 2.0 5.0 0.00 0.00 0.00 78 1011.8
20260507130009 48 232 2.0 5.0 0.00 0.00 0.00 78 1012.0
20260507125503 48 237 1.0 3.0 0.00 0.00 0.00 79 1012.1
20260507125003 47 237 2.0 3.0 0.00 0.00 0.00 80 1012.1
20260507124509 47 239 2.0 5.0 0.00 0.00 0.00 80 1012.0
20260507123504 46 243 2.0 4.0 0.00 0.00 0.00 80 1012.0
20260507123009 46 245 1.0 3.0 0.00 0.00 0.00 81 1012.0
20260507122503 46 243 1.0 3.0 0.00 0.00 0.00 81 1012.0
20260507122003 46 240 1.0 3.0 0.00 0.00 0.00 81 1012.0
20260507121508 46 239 1.0 4.0 0.00 0.00 0.00 82 1012.0
20260507121004 45 242 1.0 4.0 0.00 0.00 0.00 82 1012.0
20260507120504 45 237 1.0 3.0 0.00 0.00 0.00 82 1012.0
20260507120008 45 231 1.0 3.0 0.00 0.00 0.00 82 1012.0
20260507115504 45 242 1.0 2.0 0.00 0.00 0.00 82 1012.0
20260507115004 45 249 1.0 2.0 0.00 0.00 0.00 81 1012.0
20260507113503 45 241 1.0 2.0 0.00 0.00 0.00 81 1012.1
20260507113008 45 239 1.0 2.0 0.00 0.00 0.00 81 1012.0
20260507112504 45 234 1.0 2.0 0.00 0.00 0.00 81 1012.0
20260507112004 45 234 1.0 2.0 0.00 0.00 0.00 80 1012.0
20260507111003 45 232 0.0 1.0 0.00 0.00 0.00 80 1012.0
20260507110503 46 237 0.0 2.0 0.00 0.00 0.00 80 1012.0
20260507110008 46 240 0.0 2.0 0.00 0.00 0.00 80 1012.1
20260507105003 46 235 1.0 2.0 0.00 0.00 0.00 80 1012.0
20260507104508 46 235 1.0 2.0 0.00 0.00 0.00 79 1011.9
20260507104003 46 237 1.0 2.0 0.00 0.00 0.00 79 1011.9
20260507103503 46 238 1.0 2.0 0.00 0.00 0.00 79 1012.0
20260507103009 46 242 1.0 2.0 0.00 0.00 0.00 79 1011.9
20260507102003 46 250 0.0 2.0 0.00 0.00 0.00 79 1012.0
20260507101509 46 240 0.0 2.0 0.00 0.00 0.00 79 1012.0
20260507101004 46 246 1.0 2.0 0.00 0.00 0.00 78 1012.0
20260507100504 46 247 1.0 2.0 0.00 0.00 0.00 78 1012.0
20260507095003 46 229 1.0 2.0 0.00 0.00 0.00 78 1012.2